Time,TemperatureF,DewpointF,PressureIn,WindDirection,WindDirectionDegrees,WindSpeedMPH,WindSpeedGustMPH,Humidity,HourlyPrecipIn,Conditions,Clouds,dailyrainin,SolarRadiationWatts/m^2,SoftwareType,DateUTC
2013-04-15 00:00:00,54.7,50.3,29.93,South,190,0.0,2.0,85,0.00,,,0.00,0,Wunderground v.1.15,2013-04-15 04:00:00,
2013-04-15 00:10:00,54.7,50.3,29.93,South,190,0.0,0.0,85,0.00,,,0.00,0,Wunderground v.1.15,2013-04-15 04:10:00,
2013-04-15 00:15:00,54.7,50.6,29.94,South,190,0.0,0.0,86,0.00,,,0.00,0,Wunderground v.1.15,2013-04-15 04:15:00,
2013-04-15 00:20:00,54.8,50.7,29.94,South,190,0.0,0.0,86,0.00,,,0.00,0,Wunderground v.1.15,2013-04-15 04:20:00,
2013-04-15 00:25:00,54.8,50.7,29.94,SSE,163,0.0,1.0,86,0.00,,,0.00,0,Wunderground v.1.15,2013-04-15 04:25:00,
2013-04-15 00:30:00,54.8,50.7,29.94,SSE,163,0.0,0.0,86,0.00,,,0.00,0,Wunderground v.1.15,2013-04-15 04:30:00,
2013-04-15 00:35:00,54.9,50.8,29.94,SSE,163,0.0,0.0,86,0.00,,,0.00,0,Wunderground v.1.15,2013-04-15 04:35:00,
2013-04-15 00:45:00,54.9,51.1,29.93,SSE,163,0.0,0.0,87,0.00,,,0.00,0,Wunderground v.1.15,2013-04-15 04:45:00,
2013-04-15 00:50:00,54.9,51.1,29.94,SSE,163,0.0,0.0,87,0.00,,,0.00,0,Wunderground v.1.15,2013-04-15 04:50:00,
2013-04-15 00:55:00,54.9,51.1,29.93,SSE,163,0.0,0.0,87,0.00,,,0.00,0,Wunderground v.1.15,2013-04-15 04:55:00,
2013-04-15 01:00:00,55.0,51.2,29.93,SSE,163,0.0,0.0,87,0.00,,,0.00,0,Wunderground v.1.15,2013-04-15 05:00:00,
2013-04-15 01:05:00,55.0,51.2,29.93,SSE,163,0.0,0.0,87,0.00,,,0.00,0,Wunderground v.1.15,2013-04-15 05:05:00,
2013-04-15 01:15:00,55.1,51.6,29.94,SSE,163,0.0,0.0,88,0.00,,,0.00,0,Wunderground v.1.15,2013-04-15 05:15:00,
2013-04-15 01:20:00,55.1,51.6,29.94,SSE,163,0.0,0.0,88,0.00,,,0.00,0,Wunderground v.1.15,2013-04-15 05:20:00,
2013-04-15 01:25:00,55.1,51.6,29.94,SSE,159,0.0,2.0,88,0.00,,,0.00,0,Wunderground v.1.15,2013-04-15 05:25:00,
2013-04-15 01:30:00,55.1,51.6,29.94,SSE,148,0.0,0.0,88,0.00,,,0.00,0,Wunderground v.1.15,2013-04-15 05:30:00,
2013-04-15 01:35:00,55.2,51.7,29.93,SSE,157,1.0,2.0,88,0.00,,,0.00,0,Wunderground v.1.15,2013-04-15 05:35:00,
2013-04-15 01:40:00,55.2,51.7,29.93,SSE,156,1.0,1.0,88,0.00,,,0.00,0,Wunderground v.1.15,2013-04-15 05:40:00,
2013-04-15 01:50:00,55.3,51.8,29.93,SE,140,1.0,3.0,88,0.00,,,0.00,0,Wunderground v.1.15,2013-04-15 05:50:00,
2013-04-15 01:55:00,55.4,51.9,29.93,SE,140,1.0,3.0,88,0.00,,,0.00,0,Wunderground v.1.15,2013-04-15 05:55:00,
2013-04-15 02:00:00,55.4,51.9,29.93,SE,128,2.0,2.0,88,0.00,,,0.00,0,Wunderground v.1.15,2013-04-15 06:00:00,
2013-04-15 02:05:00,55.5,52.0,29.93,SE,128,1.0,2.0,88,0.00,,,0.00,0,Wunderground v.1.15,2013-04-15 06:05:00,
2013-04-15 02:15:00,55.5,52.0,29.93,SE,128,1.0,1.0,88,0.00,,,0.00,0,Wunderground v.1.15,2013-04-15 06:15:00,
2013-04-15 02:20:00,55.7,51.9,29.92,SSE,155,1.0,2.0,87,0.00,,,0.00,0,Wunderground v.1.15,2013-04-15 06:20:00,
2013-04-15 02:25:00,55.8,52.0,29.92,SE,133,1.0,2.0,87,0.00,,,0.00,0,Wunderground v.1.15,2013-04-15 06:25:00,
2013-04-15 02:30:00,55.9,51.8,29.92,SE,133,1.0,1.0,86,0.00,,,0.00,0,Wunderground v.1.15,2013-04-15 06:30:00,
2013-04-15 02:35:00,55.9,51.8,29.92,ESE,109,1.0,1.0,86,0.00,,,0.00,0,Wunderground v.1.15,2013-04-15 06:35:00,
2013-04-15 02:40:00,56.0,51.9,29.92,SE,132,1.0,3.0,86,0.00,,,0.00,0,Wunderground v.1.15,2013-04-15 06:40:00,
2013-04-15 02:45:00,56.0,51.9,29.92,ESE,115,1.0,5.0,86,0.00,,,0.00,0,Wunderground v.1.15,2013-04-15 06:45:00,
2013-04-15 02:55:00,55.8,52.0,29.91,SE,128,1.0,2.0,87,0.00,,,0.00,0,Wunderground v.1.15,2013-04-15 06:55:00,
2013-04-15 03:00:00,55.6,51.8,29.91,ESE,119,0.0,3.0,87,0.00,,,0.00,0,Wunderground v.1.15,2013-04-15 07:00:00,
2013-04-15 03:05:00,55.7,51.9,29.91,South,173,1.0,3.0,87,0.00,,,0.00,0,Wunderground v.1.15,2013-04-15 07:05:00,
2013-04-15 03:45:00,55.8,52.0,29.91,SE,144,0.0,0.0,87,0.00,,,0.00,0,Wunderground v.1.15,2013-04-15 07:45:00,
2013-04-15 03:50:00,55.7,51.9,29.91,SE,144,0.0,0.0,87,0.00,,,0.00,0,Wunderground v.1.15,2013-04-15 07:50:00,
2013-04-15 03:55:00,55.7,51.9,29.92,SE,144,0.0,0.0,87,0.00,,,0.00,0,Wunderground v.1.15,2013-04-15 07:55:00,
2013-04-15 04:00:00,55.6,51.8,29.92,SE,144,0.0,0.0,87,0.00,,,0.00,0,Wunderground v.1.15,2013-04-15 08:00:00,
2013-04-15 04:05:00,55.4,51.9,29.92,SE,144,0.0,0.0,88,0.00,,,0.00,0,Wunderground v.1.15,2013-04-15 08:05:00,
2013-04-15 04:15:00,55.0,51.8,29.92,SE,144,0.0,0.0,89,0.00,,,0.00,0,Wunderground v.1.15,2013-04-15 08:15:00,
2013-04-15 04:20:00,54.8,51.6,29.92,SE,144,0.0,0.0,89,0.00,,,0.00,0,Wunderground v.1.15,2013-04-15 08:20:00,
2013-04-15 04:25:00,54.7,51.5,29.92,SE,144,0.0,0.0,89,0.00,,,0.00,0,Wunderground v.1.15,2013-04-15 08:25:00,
2013-04-15 04:30:00,54.7,51.5,29.92,SE,144,0.0,0.0,89,0.00,,,0.00,0,Wunderground v.1.15,2013-04-15 08:30:00,
2013-04-15 04:35:00,54.7,51.8,29.92,SE,144,0.0,0.0,90,0.00,,,0.00,0,Wunderground v.1.15,2013-04-15 08:35:00,
2013-04-15 04:40:00,54.7,51.8,29.92,SE,144,0.0,0.0,90,0.00,,,0.00,0,Wunderground v.1.15,2013-04-15 08:40:00,
2013-04-15 04:45:00,54.6,51.7,29.92,SE,144,0.0,0.0,90,0.00,,,0.00,0,Wunderground v.1.15,2013-04-15 08:45:00,
2013-04-15 04:55:00,54.7,51.8,29.93,SE,144,0.0,0.0,90,0.00,,,0.00,0,Wunderground v.1.15,2013-04-15 08:55:00,
2013-04-15 05:00:00,54.6,51.7,29.93,SE,144,0.0,0.0,90,0.00,,,0.00,0,Wunderground v.1.15,2013-04-15 09:00:00,
2013-04-15 05:05:00,54.7,51.8,29.93,SE,144,0.0,0.0,90,0.00,,,0.00,0,Wunderground v.1.15,2013-04-15 09:05:00,
2013-04-15 05:15:00,54.6,51.7,29.93,SE,144,0.0,0.0,90,0.00,,,0.00,0,Wunderground v.1.15,2013-04-15 09:15:00,
2013-04-15 05:20:00,54.6,51.7,29.93,SE,144,0.0,0.0,90,0.00,,,0.00,0,Wunderground v.1.15,2013-04-15 09:20:00,
2013-04-15 05:25:00,54.6,51.7,29.93,SE,144,0.0,0.0,90,0.00,,,0.00,0,Wunderground v.1.15,2013-04-15 09:25:00,
2013-04-15 05:30:00,54.6,51.7,29.93,SE,144,0.0,0.0,90,0.00,,,0.00,0,Wunderground v.1.15,2013-04-15 09:30:00,
2013-04-15 05:35:00,54.5,51.6,29.93,SE,144,0.0,0.0,90,0.00,,,0.00,0,Wunderground v.1.15,2013-04-15 09:35:00,
2013-04-15 05:40:00,54.5,51.6,29.94,SE,144,0.0,0.0,90,0.00,,,0.00,0,Wunderground v.1.15,2013-04-15 09:40:00,
2013-04-15 05:45:00,54.5,51.6,29.94,SE,144,0.0,0.0,90,0.00,,,0.00,0,Wunderground v.1.15,2013-04-15 09:45:00,
2013-04-15 05:50:00,54.5,51.9,29.94,SE,144,0.0,0.0,91,0.00,,,0.00,0,Wunderground v.1.15,2013-04-15 09:50:00,
2013-04-15 05:55:00,54.5,51.9,29.94,SE,144,0.0,0.0,91,0.00,,,0.00,0,Wunderground v.1.15,2013-04-15 09:55:00,
2013-04-15 06:00:00,54.4,51.8,29.94,SE,144,0.0,0.0,91,0.00,,,0.00,0,Wunderground v.1.15,2013-04-15 10:00:00,
2013-04-15 06:10:00,54.5,51.9,29.94,SE,144,0.0,0.0,91,0.00,,,0.00,0,Wunderground v.1.15,2013-04-15 10:10:00,
2013-04-15 06:15:00,54.4,51.8,29.94,SE,144,0.0,0.0,91,0.00,,,0.00,0,Wunderground v.1.15,2013-04-15 10:15:00,
2013-04-15 06:20:00,54.4,51.8,29.94,SE,144,0.0,0.0,91,0.00,,,0.00,0,Wunderground v.1.15,2013-04-15 10:20:00,
2013-04-15 06:25:00,54.3,51.7,29.94,SE,144,0.0,0.0,91,0.00,,,0.00,0,Wunderground v.1.15,2013-04-15 10:25:00,
2013-04-15 06:30:00,54.3,51.7,29.95,SE,144,0.0,0.0,91,0.00,,,0.00,0,Wunderground v.1.15,2013-04-15 10:30:00,
2013-04-15 06:35:00,54.2,51.6,29.95,SE,144,0.0,0.0,91,0.00,,,0.00,0,Wunderground v.1.15,2013-04-15 10:35:00,
2013-04-15 06:45:00,54.2,51.6,29.95,SE,144,0.0,0.0,91,0.00,,,0.00,0,Wunderground v.1.15,2013-04-15 10:45:00,
2013-04-15 06:50:00,54.2,51.6,29.95,SE,144,0.0,0.0,91,0.00,,,0.00,0,Wunderground v.1.15,2013-04-15 10:50:00,
2013-04-15 06:55:00,54.3,51.7,29.95,SE,144,0.0,0.0,91,0.00,,,0.00,0,Wunderground v.1.15,2013-04-15 10:55:00,
2013-04-15 07:00:00,54.2,51.6,29.95,SE,144,0.0,0.0,91,0.00,,,0.00,0,Wunderground v.1.15,2013-04-15 11:00:00,
2013-04-15 07:05:00,54.2,51.6,29.96,SE,144,0.0,0.0,91,0.00,,,0.00,0,Wunderground v.1.15,2013-04-15 11:05:00,
2013-04-15 07:15:00,54.2,51.6,29.96,SE,144,0.0,0.0,91,0.00,,,0.00,0,Wunderground v.1.15,2013-04-15 11:15:00,
2013-04-15 07:20:00,54.2,51.9,29.96,SE,144,0.0,0.0,92,0.00,,,0.00,5,Wunderground v.1.15,2013-04-15 11:20:00,
2013-04-15 07:25:00,54.2,51.9,29.96,SE,144,0.0,0.0,92,0.00,,,0.00,7,Wunderground v.1.15,2013-04-15 11:25:00,
2013-04-15 07:30:00,54.2,51.9,29.97,SE,144,0.0,0.0,92,0.00,,,0.00,11,Wunderground v.1.15,2013-04-15 11:30:00,
2013-04-15 07:35:00,54.2,51.9,29.97,SE,144,0.0,0.0,92,0.00,,,0.00,14,Wunderground v.1.15,2013-04-15 11:35:00,
2013-04-15 07:40:00,54.2,51.9,29.97,SE,144,0.0,0.0,92,0.00,,,0.00,18,Wunderground v.1.15,2013-04-15 11:40:00,
2013-04-15 07:45:00,54.2,51.9,29.98,SE,144,0.0,0.0,92,0.00,,,0.00,19,Wunderground v.1.15,2013-04-15 11:45:00,
2013-04-15 07:55:00,54.3,52.0,29.99,SE,144,0.0,0.0,92,0.00,,,0.00,26,Wunderground v.1.15,2013-04-15 11:55:00,
2013-04-15 08:00:00,54.5,52.2,29.99,SE,144,0.0,0.0,92,0.00,,,0.00,25,Wunderground v.1.15,2013-04-15 12:00:00,
2013-04-15 08:05:00,54.6,52.3,29.99,SE,144,0.0,0.0,92,0.00,,,0.00,30,Wunderground v.1.15,2013-04-15 12:05:00,
2013-04-15 08:15:00,54.6,52.3,29.99,SE,144,0.0,0.0,92,0.00,,,0.00,44,Wunderground v.1.15,2013-04-15 12:15:00,
2013-04-15 08:20:00,54.8,52.5,30.00,SE,144,0.0,0.0,92,0.00,,,0.00,51,Wunderground v.1.15,2013-04-15 12:20:00,
2013-04-15 08:25:00,54.9,52.6,30.00,SE,144,0.0,0.0,92,0.00,,,0.00,58,Wunderground v.1.15,2013-04-15 12:25:00,
2013-04-15 08:30:00,55.1,52.8,30.00,SE,144,0.0,0.0,92,0.00,,,0.00,72,Wunderground v.1.15,2013-04-15 12:30:00,
2013-04-15 08:35:00,55.4,53.1,30.00,SE,144,0.0,0.0,92,0.00,,,0.00,84,Wunderground v.1.15,2013-04-15 12:35:00,
2013-04-15 08:45:00,55.8,53.2,30.00,SE,144,0.0,0.0,91,0.00,,,0.00,102,Wunderground v.1.15,2013-04-15 12:45:00,
2013-04-15 08:55:00,56.5,53.6,30.00,SE,144,0.0,0.0,90,0.00,,,0.00,123,Wunderground v.1.15,2013-04-15 12:55:00,
2013-04-15 09:00:00,57.0,54.1,30.00,SE,144,0.0,0.0,90,0.00,,,0.00,381,Wunderground v.1.15,2013-04-15 13:00:00,
2013-04-15 09:05:00,58.0,54.5,30.00,SE,144,0.0,0.0,88,0.00,,,0.00,420,Wunderground v.1.15,2013-04-15 13:05:00,
2013-04-15 09:15:00,59.0,54.5,30.00,SE,128,1.0,2.0,85,0.00,,,0.00,144,Wunderground v.1.15,2013-04-15 13:15:00,
2013-04-15 09:20:00,58.9,54.4,30.00,SE,128,1.0,2.0,85,0.00,,,0.00,153,Wunderground v.1.15,2013-04-15 13:20:00,
2013-04-15 09:25:00,58.6,54.4,30.00,SE,128,0.0,2.0,86,0.00,,,0.00,153,Wunderground v.1.15,2013-04-15 13:25:00,
2013-04-15 09:30:00,58.7,54.2,30.00,SE,128,0.0,0.0,85,0.00,,,0.00,160,Wunderground v.1.15,2013-04-15 13:30:00,
2013-04-15 09:35:00,58.9,54.4,30.00,SE,128,0.0,0.0,85,0.00,,,0.00,185,Wunderground v.1.15,2013-04-15 13:35:00,
2013-04-15 09:40:00,59.0,54.2,30.01,SE,128,0.0,0.0,84,0.00,,,0.00,186,Wunderground v.1.15,2013-04-15 13:40:00,
2013-04-15 09:50:00,59.6,54.4,30.01,SE,128,0.0,0.0,83,0.00,,,0.00,167,Wunderground v.1.15,2013-04-15 13:50:00,
2013-04-15 09:55:00,60.0,54.5,30.01,SE,128,0.0,0.0,82,0.00,,,0.00,181,Wunderground v.1.15,2013-04-15 13:55:00,
2013-04-15 10:00:00,60.4,54.5,30.01,SW,222,1.0,1.0,81,0.00,,,0.00,125,Wunderground v.1.15,2013-04-15 14:00:00,
2013-04-15 10:05:00,60.4,54.5,30.01,SW,226,1.0,1.0,81,0.00,,,0.00,146,Wunderground v.1.15,2013-04-15 14:05:00,
2013-04-15 10:15:00,61.6,54.7,30.01,SW,226,0.0,0.0,78,0.00,,,0.00,380,Wunderground v.1.15,2013-04-15 14:15:00,
2013-04-15 10:25:00,62.0,54.0,30.01,SSW,196,1.0,1.0,75,0.00,,,0.00,223,Wunderground v.1.15,2013-04-15 14:25:00,
2013-04-15 10:30:00,62.2,53.8,30.02,South,176,1.0,1.0,74,0.00,,,0.00,401,Wunderground v.1.15,2013-04-15 14:30:00,
2013-04-15 10:35:00,62.4,54.0,30.02,SW,223,1.0,1.0,74,0.00,,,0.00,151,Wunderground v.1.15,2013-04-15 14:35:00,
2013-04-15 10:45:00,62.7,53.5,30.02,WSW,237,1.0,1.0,72,0.00,,,0.00,315,Wunderground v.1.15,2013-04-15 14:45:00,
2013-04-15 10:50:00,63.4,54.2,30.02,SSE,168,1.0,1.0,72,0.00,,,0.00,257,Wunderground v.1.15,2013-04-15 14:50:00,
2013-04-15 10:55:00,63.7,54.5,30.02,WSW,248,1.0,2.0,72,0.00,,,0.00,445,Wunderground v.1.15,2013-04-15 14:55:00,
2013-04-15 11:05:00,63.8,54.6,30.02,WSW,246,1.0,1.0,72,0.00,,,0.00,165,Wunderground v.1.15,2013-04-15 15:05:00,
2013-04-15 11:15:00,64.0,55.2,30.02,WSW,246,0.0,1.0,73,0.00,,,0.00,729,Wunderground v.1.15,2013-04-15 15:15:00,
2013-04-15 11:20:00,64.6,55.0,30.02,SSE,150,1.0,1.0,71,0.00,,,0.00,580,Wunderground v.1.15,2013-04-15 15:20:00,
2013-04-15 11:25:00,64.6,54.6,30.02,SW,215,1.0,5.0,70,0.00,,,0.00,269,Wunderground v.1.15,2013-04-15 15:25:00,
2013-04-15 11:35:00,64.4,54.8,30.02,WSW,256,1.0,1.0,71,0.00,,,0.00,190,Wunderground v.1.15,2013-04-15 15:35:00,
2013-04-15 11:40:00,64.8,54.8,30.02,WSW,256,0.0,0.0,70,0.00,,,0.00,452,Wunderground v.1.15,2013-04-15 15:40:00,
2013-04-15 11:45:00,65.3,55.7,30.02,SW,236,1.0,1.0,71,0.00,,,0.00,431,Wunderground v.1.15,2013-04-15 15:45:00,
2013-04-15 11:50:00,66.1,55.2,30.02,SSW,213,2.0,2.0,68,0.00,,,0.00,733,Wunderground v.1.15,2013-04-15 15:50:00,
2013-04-15 11:55:00,66.3,55.4,30.02,WNW,288,2.0,3.0,68,0.00,,,0.00,733,Wunderground v.1.15,2013-04-15 15:55:00,
2013-04-15 12:05:00,67.6,55.4,30.02,SSE,166,1.0,2.0,65,0.00,,,0.00,580,Wunderground v.1.15,2013-04-15 16:05:00,
2013-04-15 12:15:00,68.1,55.9,30.02,South,184,1.0,1.0,65,0.00,,,0.00,396,Wunderground v.1.15,2013-04-15 16:15:00,
2013-04-15 12:20:00,68.3,56.1,30.02,SSE,161,1.0,2.0,65,0.00,,,0.00,236,Wunderground v.1.15,2013-04-15 16:20:00,
2013-04-15 12:25:00,68.0,55.8,30.01,SSE,147,2.0,2.0,65,0.00,,,0.00,696,Wunderground v.1.15,2013-04-15 16:25:00,
2013-04-15 12:30:00,68.1,55.9,30.01,SW,216,2.0,2.0,65,0.00,,,0.00,963,Wunderground v.1.15,2013-04-15 16:30:00,
2013-04-15 12:40:00,68.5,55.8,30.01,East,80,2.0,2.0,64,0.00,,,0.00,271,Wunderground v.1.15,2013-04-15 16:40:00,
2013-04-15 12:45:00,68.8,56.6,30.01,South,190,1.0,2.0,65,0.00,,,0.00,942,Wunderground v.1.15,2013-04-15 16:45:00,
2013-04-15 12:50:00,69.3,56.6,30.01,NW,307,2.0,2.0,64,0.00,,,0.00,1009,Wunderground v.1.15,2013-04-15 16:50:00,
2013-04-15 12:55:00,70.2,56.6,30.01,ESE,117,1.0,2.0,62,0.00,,,0.00,969,Wunderground v.1.15,2013-04-15 16:55:00,
2013-04-15 13:00:00,70.5,57.3,30.01,NNW,343,1.0,1.0,63,0.00,,,0.00,923,Wunderground v.1.15,2013-04-15 17:00:00,
2013-04-15 13:05:00,71.0,56.9,30.01,WSW,250,1.0,1.0,61,0.00,,,0.00,914,Wunderground v.1.15,2013-04-15 17:05:00,
2013-04-15 13:15:00,71.0,57.3,30.00,ENE,63,1.0,2.0,62,0.00,,,0.00,914,Wunderground v.1.15,2013-04-15 17:15:00,
2013-04-15 13:20:00,71.4,57.2,30.00,NW,325,1.0,1.0,61,0.00,,,0.00,919,Wunderground v.1.15,2013-04-15 17:20:00,
2013-04-15 13:25:00,72.0,57.8,30.00,East,89,1.0,1.0,61,0.00,,,0.00,919,Wunderground v.1.15,2013-04-15 17:25:00,
2013-04-15 13:30:00,72.1,57.0,30.00,South,187,1.0,3.0,59,0.00,,,0.00,919,Wunderground v.1.15,2013-04-15 17:30:00,
2013-04-15 13:35:00,71.9,57.3,29.99,SSW,211,1.0,3.0,60,0.00,,,0.00,918,Wunderground v.1.15,2013-04-15 17:35:00,
2013-04-15 13:40:00,72.1,57.0,30.00,SE,146,1.0,1.0,59,0.00,,,0.00,916,Wunderground v.1.15,2013-04-15 17:40:00,
2013-04-15 13:45:00,71.8,57.2,29.99,South,169,1.0,1.0,60,0.00,,,0.00,921,Wunderground v.1.15,2013-04-15 17:45:00,
2013-04-15 13:55:00,72.2,57.5,29.99,NNW,341,2.0,3.0,60,0.00,,,0.00,919,Wunderground v.1.15,2013-04-15 17:55:00,
2013-04-15 14:00:00,72.6,57.9,29.99,SW,214,1.0,1.0,60,0.00,,,0.00,914,Wunderground v.1.15,2013-04-15 18:00:00,
2013-04-15 14:05:00,72.9,56.8,29.99,ESE,115,1.0,2.0,57,0.00,,,0.00,912,Wunderground v.1.15,2013-04-15 18:05:00,
2013-04-15 14:10:00,72.5,57.8,29.99,ESE,113,1.0,1.0,60,0.00,,,0.00,905,Wunderground v.1.15,2013-04-15 18:10:00,
2013-04-15 14:20:00,73.5,58.3,30.00,SE,142,1.0,1.0,59,0.00,,,0.00,900,Wunderground v.1.15,2013-04-15 18:20:00,
2013-04-15 14:30:00,73.8,57.6,29.99,South,169,2.0,2.0,57,0.00,,,0.00,889,Wunderground v.1.15,2013-04-15 18:30:00,
2013-04-15 14:35:00,73.9,58.2,29.99,SSE,167,2.0,5.0,58,0.00,,,0.00,886,Wunderground v.1.15,2013-04-15 18:35:00,
2013-04-15 14:40:00,73.9,58.2,29.99,SSE,155,2.0,2.0,58,0.00,,,0.00,877,Wunderground v.1.15,2013-04-15 18:40:00,
2013-04-15 14:45:00,74.0,58.3,29.99,ESE,107,2.0,2.0,58,0.00,,,0.00,877,Wunderground v.1.15,2013-04-15 18:45:00,
2013-04-15 14:50:00,74.4,58.2,29.98,SSE,157,2.0,4.0,57,0.00,,,0.00,868,Wunderground v.1.15,2013-04-15 18:50:00,
2013-04-15 14:55:00,74.6,58.8,29.99,South,173,3.0,4.0,58,0.00,,,0.00,860,Wunderground v.1.15,2013-04-15 18:55:00,
2013-04-15 15:00:00,74.9,58.1,29.99,South,189,2.0,2.0,56,0.00,,,0.00,849,Wunderground v.1.15,2013-04-15 19:00:00,
2013-04-15 15:05:00,75.5,58.2,29.98,SW,229,1.0,2.0,55,0.00,,,0.00,847,Wunderground v.1.15,2013-04-15 19:05:00,
2013-04-15 15:15:00,76.0,57.6,29.98,SW,231,2.0,3.0,53,0.00,,,0.00,828,Wunderground v.1.15,2013-04-15 19:15:00,
2013-04-15 15:20:00,76.2,58.3,29.98,SW,215,1.0,2.0,54,0.00,,,0.00,817,Wunderground v.1.15,2013-04-15 19:20:00,
2013-04-15 15:30:00,76.6,58.2,29.98,NNE,32,2.0,2.0,53,0.00,,,0.00,800,Wunderground v.1.15,2013-04-15 19:30:00,
2013-04-15 15:35:00,77.2,58.2,29.98,SW,217,2.0,6.0,52,0.00,,,0.00,791,Wunderground v.1.15,2013-04-15 19:35:00,
2013-04-15 15:40:00,77.5,57.9,29.98,SSE,153,2.0,2.0,51,0.00,,,0.00,782,Wunderground v.1.15,2013-04-15 19:40:00,
2013-04-15 15:45:00,77.1,59.7,29.98,SSE,164,2.0,2.0,55,0.00,,,0.00,772,Wunderground v.1.15,2013-04-15 19:45:00,
2013-04-15 15:50:00,77.3,58.3,29.98,SSW,194,2.0,2.0,52,0.00,,,0.00,758,Wunderground v.1.15,2013-04-15 19:50:00,
2013-04-15 15:55:00,77.9,58.9,29.97,SSW,209,1.0,2.0,52,0.00,,,0.00,749,Wunderground v.1.15,2013-04-15 19:55:00,
2013-04-15 16:00:00,78.2,57.5,29.97,WSW,240,1.0,1.0,49,0.00,,,0.00,737,Wunderground v.1.15,2013-04-15 20:00:00,
2013-04-15 16:05:00,78.4,57.7,29.97,NNW,342,1.0,1.0,49,0.00,,,0.00,724,Wunderground v.1.15,2013-04-15 20:05:00,
2013-04-15 16:15:00,78.7,57.9,29.97,SSE,168,1.0,1.0,49,0.00,,,0.00,700,Wunderground v.1.15,2013-04-15 20:15:00,
2013-04-15 16:20:00,78.7,57.4,29.97,SSW,213,1.0,1.0,48,0.00,,,0.00,686,Wunderground v.1.15,2013-04-15 20:20:00,
2013-04-15 16:25:00,78.2,58.0,29.97,SW,221,1.0,1.0,50,0.00,,,0.00,671,Wunderground v.1.15,2013-04-15 20:25:00,
2013-04-15 16:30:00,77.9,57.2,29.96,SW,225,2.0,5.0,49,0.00,,,0.00,657,Wunderground v.1.15,2013-04-15 20:30:00,
2013-04-15 16:35:00,77.9,57.8,29.96,SSE,148,2.0,5.0,50,0.00,,,0.00,636,Wunderground v.1.15,2013-04-15 20:35:00,
2013-04-15 16:40:00,77.8,58.2,29.96,SW,232,1.0,1.0,51,0.00,,,0.00,413,Wunderground v.1.15,2013-04-15 20:40:00,
2013-04-15 16:45:00,77.8,58.8,29.96,South,184,1.0,3.0,52,0.00,,,0.00,271,Wunderground v.1.15,2013-04-15 20:45:00,
2013-04-15 16:50:00,77.6,58.0,29.96,SSW,205,1.0,1.0,51,0.00,,,0.00,239,Wunderground v.1.15,2013-04-15 20:50:00,
2013-04-15 16:55:00,77.2,58.2,29.96,SSW,213,2.0,6.0,52,0.00,,,0.00,197,Wunderground v.1.15,2013-04-15 20:55:00,
2013-04-15 17:00:00,76.7,58.3,29.96,South,184,2.0,2.0,53,0.00,,,0.00,267,Wunderground v.1.15,2013-04-15 21:00:00,
2013-04-15 17:05:00,76.6,58.7,29.96,SSW,203,1.0,3.0,54,0.00,,,0.00,264,Wunderground v.1.15,2013-04-15 21:05:00,
2013-04-15 17:15:00,76.3,58.9,29.96,SW,218,2.0,4.0,55,0.00,,,0.00,387,Wunderground v.1.15,2013-04-15 21:15:00,
2013-04-15 17:20:00,76.4,59.0,29.96,NNE,32,1.0,1.0,55,0.00,,,0.00,306,Wunderground v.1.15,2013-04-15 21:20:00,
2013-04-15 17:25:00,76.5,59.1,29.96,SSW,194,1.0,1.0,55,0.00,,,0.00,211,Wunderground v.1.15,2013-04-15 21:25:00,
2013-04-15 17:30:00,76.4,59.0,29.96,West,261,1.0,1.0,55,0.00,,,0.00,127,Wunderground v.1.15,2013-04-15 21:30:00,
2013-04-15 17:35:00,76.2,58.9,29.96,South,183,1.0,3.0,55,0.00,,,0.00,262,Wunderground v.1.15,2013-04-15 21:35:00,
2013-04-15 17:40:00,75.9,59.6,29.96,SSW,194,1.0,1.0,57,0.00,,,0.00,128,Wunderground v.1.15,2013-04-15 21:40:00,
2013-04-15 17:50:00,75.3,58.5,29.96,SW,232,1.0,1.0,56,0.00,,,0.00,127,Wunderground v.1.15,2013-04-15 21:50:00,
2013-04-15 18:00:00,75.2,58.9,29.97,West,281,1.0,1.0,57,0.00,,,0.00,209,Wunderground v.1.15,2013-04-15 22:00:00,
2013-04-15 18:05:00,75.0,58.7,29.97,SW,226,1.0,2.0,57,0.00,,,0.00,86,Wunderground v.1.15,2013-04-15 22:05:00,
2013-04-15 18:15:00,74.6,59.3,29.97,SW,221,1.0,1.0,59,0.00,,,0.00,102,Wunderground v.1.15,2013-04-15 22:15:00,
2013-04-15 18:25:00,74.3,58.6,29.97,NNW,340,1.0,4.0,58,0.00,,,0.00,81,Wunderground v.1.15,2013-04-15 22:25:00,
2013-04-15 18:35:00,73.7,58.5,29.98,ENE,58,2.0,2.0,59,0.00,,,0.00,56,Wunderground v.1.15,2013-04-15 22:35:00,
2013-04-15 18:40:00,73.3,58.6,29.98,SW,226,1.0,1.0,60,0.00,,,0.00,44,Wunderground v.1.15,2013-04-15 22:40:00,
2013-04-15 18:45:00,73.0,58.3,29.98,WSW,244,1.0,4.0,60,0.00,,,0.00,62,Wunderground v.1.15,2013-04-15 22:45:00,
2013-04-15 18:50:00,72.7,58.5,29.99,WSW,242,1.0,1.0,61,0.00,,,0.00,39,Wunderground v.1.15,2013-04-15 22:50:00,
2013-04-15 18:55:00,72.5,58.3,29.99,SW,223,2.0,2.0,61,0.00,,,0.00,47,Wunderground v.1.15,2013-04-15 22:55:00,
2013-04-15 19:00:00,72.3,58.1,29.99,SW,229,1.0,1.0,61,0.00,,,0.00,63,Wunderground v.1.15,2013-04-15 23:00:00,
2013-04-15 19:10:00,71.9,58.2,29.99,SSE,150,2.0,2.0,62,0.00,,,0.00,51,Wunderground v.1.15,2013-04-15 23:10:00,
2013-04-15 19:15:00,71.6,58.3,30.00,SSE,153,1.0,2.0,63,0.00,,,0.00,32,Wunderground v.1.15,2013-04-15 23:15:00,
2013-04-15 19:20:00,71.3,58.1,30.00,SSE,158,1.0,1.0,63,0.00,,,0.00,26,Wunderground v.1.15,2013-04-15 23:20:00,
2013-04-15 19:25:00,71.1,57.9,30.00,SSE,158,1.0,1.0,63,0.00,,,0.00,21,Wunderground v.1.15,2013-04-15 23:25:00,
2013-04-15 19:30:00,70.8,57.6,30.00,SE,146,1.0,1.0,63,0.00,,,0.00,21,Wunderground v.1.15,2013-04-15 23:30:00,
2013-04-15 19:35:00,70.6,57.4,30.00,SSE,163,0.0,1.0,63,0.00,,,0.00,18,Wunderground v.1.15,2013-04-15 23:35:00,
2013-04-15 19:45:00,70.3,57.1,30.01,South,169,1.0,2.0,63,0.00,,,0.00,12,Wunderground v.1.15,2013-04-15 23:45:00,
2013-04-15 19:50:00,70.0,57.3,30.01,South,169,1.0,1.0,64,0.00,,,0.00,11,Wunderground v.1.15,2013-04-15 23:50:00,
2013-04-15 19:55:00,69.7,57.0,30.01,South,169,0.0,1.0,64,0.00,,,0.00,7,Wunderground v.1.15,2013-04-15 23:55:00,
2013-04-15 20:00:00,69.4,56.7,30.01,South,169,0.0,2.0,64,0.00,,,0.00,5,Wunderground v.1.15,2013-04-16 00:00:00,
2013-04-15 20:05:00,69.0,56.7,30.02,South,169,0.0,2.0,65,0.00,,,0.00,0,Wunderground v.1.15,2013-04-16 00:05:00,
2013-04-15 20:15:00,68.4,56.6,30.02,South,169,0.0,0.0,66,0.00,,,0.00,0,Wunderground v.1.15,2013-04-16 00:15:00,
2013-04-15 20:20:00,68.0,56.6,30.02,South,169,0.0,0.0,67,0.00,,,0.00,0,Wunderground v.1.15,2013-04-16 00:20:00,
2013-04-15 20:25:00,67.8,56.4,30.02,South,169,1.0,3.0,67,0.00,,,0.00,0,Wunderground v.1.15,2013-04-16 00:25:00,
2013-04-15 20:30:00,67.6,56.2,30.03,South,169,1.0,1.0,67,0.00,,,0.00,0,Wunderground v.1.15,2013-04-16 00:30:00,
2013-04-15 20:35:00,67.4,56.5,30.03,South,169,0.0,1.0,68,0.00,,,0.00,0,Wunderground v.1.15,2013-04-16 00:35:00,
2013-04-15 20:45:00,67.0,56.1,30.03,South,184,1.0,1.0,68,0.00,,,0.00,0,Wunderground v.1.15,2013-04-16 00:45:00,
2013-04-15 20:55:00,66.6,56.1,30.04,SSW,194,0.0,0.0,69,0.00,,,0.00,0,Wunderground v.1.15,2013-04-16 00:55:00,
2013-04-15 21:00:00,66.4,56.3,30.04,SSW,194,1.0,1.0,70,0.00,,,0.00,0,Wunderground v.1.15,2013-04-16 01:00:00,
2013-04-15 21:05:00,66.3,56.2,30.05,SSW,194,0.0,1.0,70,0.00,,,0.00,0,Wunderground v.1.15,2013-04-16 01:05:00,
2013-04-15 21:15:00,65.9,56.2,30.05,SSW,194,0.0,0.0,71,0.00,,,0.00,0,Wunderground v.1.15,2013-04-16 01:15:00,
2013-04-15 21:20:00,65.5,55.8,30.05,SSW,194,0.0,0.0,71,0.00,,,0.00,0,Wunderground v.1.15,2013-04-16 01:20:00,
2013-04-15 21:30:00,65.3,56.0,30.06,South,178,1.0,1.0,72,0.00,,,0.00,0,Wunderground v.1.15,2013-04-16 01:30:00,
2013-04-15 21:35:00,65.4,56.1,30.06,South,178,0.0,1.0,72,0.00,,,0.00,0,Wunderground v.1.15,2013-04-16 01:35:00,
2013-04-15 21:40:00,65.2,55.9,30.06,South,178,0.0,0.0,72,0.00,,,0.00,0,Wunderground v.1.15,2013-04-16 01:40:00,
2013-04-15 21:45:00,65.0,56.1,30.06,South,178,0.0,2.0,73,0.00,,,0.00,0,Wunderground v.1.15,2013-04-16 01:45:00,
2013-04-15 21:50:00,64.7,55.8,30.06,South,178,0.0,0.0,73,0.00,,,0.00,0,Wunderground v.1.15,2013-04-16 01:50:00,
2013-04-15 21:55:00,64.5,55.7,30.07,South,178,0.0,0.0,73,0.00,,,0.00,0,Wunderground v.1.15,2013-04-16 01:55:00,
2013-04-15 22:05:00,64.1,55.6,30.07,South,178,0.0,1.0,74,0.00,,,0.00,0,Wunderground v.1.15,2013-04-16 02:05:00,
2013-04-15 22:15:00,64.3,55.8,30.08,SSE,157,1.0,10.0,74,0.00,,,0.00,0,Wunderground v.1.15,2013-04-16 02:15:00,
2013-04-15 22:20:00,64.7,56.2,30.08,South,169,2.0,4.0,74,0.00,,,0.00,0,Wunderground v.1.15,2013-04-16 02:20:00,
2013-04-15 22:25:00,64.5,56.0,30.08,SE,127,2.0,4.0,74,0.00,,,0.00,0,Wunderground v.1.15,2013-04-16 02:25:00,
2013-04-15 22:30:00,64.3,56.2,30.08,SE,146,1.0,1.0,75,0.00,,,0.00,0,Wunderground v.1.15,2013-04-16 02:30:00,
2013-04-15 22:40:00,64.2,56.1,30.08,SSE,164,1.0,1.0,75,0.00,,,0.00,0,Wunderground v.1.15,2013-04-16 02:40:00,
2013-04-15 22:45:00,64.1,56.4,30.09,SSW,196,1.0,1.0,76,0.00,,,0.00,0,Wunderground v.1.15,2013-04-16 02:45:00,
2013-04-15 22:50:00,64.0,56.3,30.09,SSW,196,1.0,1.0,76,0.00,,,0.00,0,Wunderground v.1.15,2013-04-16 02:50:00,
2013-04-15 22:55:00,63.8,56.4,30.09,SE,146,0.0,1.0,77,0.00,,,0.00,0,Wunderground v.1.15,2013-04-16 02:55:00,
2013-04-15 23:00:00,63.5,56.5,30.09,SSE,163,0.0,0.0,78,0.00,,,0.00,0,Wunderground v.1.15,2013-04-16 03:00:00,
2013-04-15 23:05:00,63.5,56.5,30.09,SSE,163,0.0,0.0,78,0.00,,,0.00,0,Wunderground v.1.15,2013-04-16 03:05:00,
2013-04-15 23:15:00,63.4,56.8,30.10,SSE,148,1.0,1.0,79,0.00,,,0.00,0,Wunderground v.1.15,2013-04-16 03:15:00,
2013-04-15 23:20:00,63.5,56.9,30.09,SSE,154,1.0,1.0,79,0.00,,,0.00,0,Wunderground v.1.15,2013-04-16 03:20:00,
2013-04-15 23:25:00,63.4,56.8,30.09,SSE,163,1.0,1.0,79,0.00,,,0.00,0,Wunderground v.1.15,2013-04-16 03:25:00,
2013-04-15 23:30:00,63.2,56.6,30.09,SSE,163,1.0,1.0,79,0.00,,,0.00,0,Wunderground v.1.15,2013-04-16 03:30:00,
2013-04-15 23:40:00,63.1,56.8,30.09,SSE,168,1.0,1.0,80,0.00,,,0.00,0,Wunderground v.1.15,2013-04-16 03:40:00,
2013-04-15 23:45:00,62.9,56.6,30.09,SSE,168,0.0,1.0,80,0.00,,,0.00,0,Wunderground v.1.15,2013-04-16 03:45:00,
2013-04-15 23:50:00,62.7,56.8,30.09,SSE,168,0.0,0.0,81,0.00,,,0.00,0,Wunderground v.1.15,2013-04-16 03:50:00,
2013-04-15 23:55:00,62.7,56.8,30.09,SSE,168,0.0,3.0,81,0.00,,,0.00,0,Wunderground v.1.15,2013-04-16 03:55:00,